TimeCST,TemperatureF,Dew PointF,Humidity,Sea Level PressureIn,VisibilityMPH,Wind Direction,Wind SpeedMPH,Gust SpeedMPH,PrecipitationIn,Events,Conditions,WindDirDegrees,DateUTC
1:53 AM,35.1,28.9,78,29.87,10.0,ENE,15.0,-,N/A,,Overcast,70,2013-03-05 07:53:00
2:53 AM,35.1,28.9,78,29.85,10.0,East,11.5,-,N/A,,Overcast,80,2013-03-05 08:53:00
3:53 AM,35.1,30.0,82,29.84,10.0,East,11.5,-,N/A,,Overcast,80,2013-03-05 09:53:00
4:53 AM,35.1,30.0,82,29.84,9.0,East,10.4,-,N/A,,Overcast,80,2013-03-05 10:53:00
5:53 AM,35.1,30.0,82,29.82,9.0,East,10.4,-,N/A,,Overcast,80,2013-03-05 11:53:00
7:43 AM,35.6,30.2,81,29.81,7.0,East,3.5,-,N/A,,Overcast,80,2013-03-05 13:43:00
7:53 AM,36.0,30.9,82,29.83,6.0,East,3.5,-,N/A,,Haze,80,2013-03-05 13:53:00
8:41 AM,35.6,33.8,93,29.79,3.0,ENE,8.1,-,0.02,Rain,Light Rain,70,2013-03-05 14:41:00
8:53 AM,36.0,33.1,89,29.80,3.0,ENE,5.8,-,0.03,Rain,Light Rain,60,2013-03-05 14:53:00
9:37 AM,35.6,33.8,93,29.79,5.0,NNE,3.5,-,0.01,,Overcast,20,2013-03-05 15:37:00
9:53 AM,36.0,33.1,89,29.81,5.0,NNW,3.5,-,0.01,,Overcast,330,2013-03-05 15:53:00
10:34 AM,35.6,33.8,93,29.78,2.5,North,3.5,-,0.00,Snow,Light Snow,10,2013-03-05 16:34:00
10:53 AM,35.1,33.1,92,29.79,2.0,North,5.8,-,0.00,Snow,Light Snow,360,2013-03-05 16:53:00
11:01 AM,35.6,33.8,93,29.77,1.5,North,5.8,-,0.01,Snow,Light Snow,360,2013-03-05 17:01:00
11:26 AM,33.8,32.0,93,29.77,1.0,NW,4.6,-,0.02,Snow,Light Snow,320,2013-03-05 17:26:00
11:30 AM,33.8,32.0,93,29.77,0.8,NW,5.8,-,0.02,Snow,Light Snow,310,2013-03-05 17:30:00
11:45 AM,33.8,32.0,93,29.77,0.5,WNW,6.9,-,0.03,Fog-Snow,Snow,300,2013-03-05 17:45:00
11:53 AM,33.1,32.0,96,29.80,0.5,WNW,6.9,-,0.03,Fog-Snow,Light Snow,300,2013-03-05 17:53:00
12:13 PM,33.8,32.0,93,29.77,0.2,WNW,6.9,-,0.02,Fog-Snow,Snow,290,2013-03-05 18:13:00
12:28 PM,33.8,32.0,93,29.76,0.2,WNW,10.4,-,0.04,Fog-Snow,Snow,290,2013-03-05 18:28:00
12:53 PM,33.1,32.0,96,29.78,0.2,WNW,11.5,-,0.06,Fog-Snow,Snow,290,2013-03-05 18:53:00
1:53 PM,33.1,32.0,96,29.78,0.2,WNW,20.7,27.6,0.03,Fog-Snow,Snow,290,2013-03-05 19:53:00
2:53 PM,30.9,30.0,96,29.80,0.2,WNW,31.1,36.8,0.02,Fog-Snow,Snow,290,2013-03-05 20:53:00
3:49 PM,30.2,28.4,93,29.79,0.2,WNW,28.8,36.8,0.02,Fog-Snow,Snow,290,2013-03-05 21:49:00
3:50 PM,30.0,28.9,96,29.81,0.2,WNW,26.5,36.8,0.02,Fog-Snow,Snow,290,2013-03-05 21:50:00
3:52 PM,30.2,28.4,93,29.79,0.5,WNW,26.5,36.8,0.00,Fog-Snow,Snow,290,2013-03-05 21:52:00
4:04 PM,30.2,28.4,93,29.80,0.2,WNW,29.9,38.0,0.00,Fog-Snow,Snow,290,2013-03-05 22:04:00
4:53 PM,30.0,28.0,92,29.83,0.2,WNW,31.1,36.8,0.01,Fog-Snow,Snow,290,2013-03-05 22:53:00
5:21 PM,30.2,28.4,93,29.82,0.5,WNW,27.6,-,0.01,Fog-Snow,Snow,290,2013-03-05 23:21:00
5:42 PM,30.2,28.4,93,29.82,0.5,WNW,25.3,32.2,0.01,Fog-Snow,Light Snow,290,2013-03-05 23:42:00
5:53 PM,28.9,27.0,92,29.85,0.5,WNW,23.0,34.5,0.01,Fog-Snow,Snow,290,2013-03-05 23:53:00
6:53 PM,28.9,27.0,92,29.86,0.5,WNW,25.3,34.5,0.00,Snow,Light Snow,290,2013-03-06 00:53:00
7:53 PM,28.9,27.0,92,29.86,1.0,WNW,25.3,33.4,0.00,Snow,Light Snow,290,2013-03-06 01:53:00
8:53 PM,30.0,28.9,96,29.88,1.0,WNW,20.7,-,0.01,Snow,Light Snow,300,2013-03-06 02:53:00
9:53 PM,30.0,28.0,92,29.91,1.5,NW,23.0,29.9,0.00,Snow,Light Snow,320,2013-03-06 03:53:00
10:53 PM,28.9,27.0,92,29.94,1.5,NNW,25.3,-,0.00,Snow,Light Snow,330,2013-03-06 04:53:00
11:53 PM,28.0,26.1,92,29.97,1.2,NNW,26.5,-,0.00,Snow,Light Snow,330,2013-03-06 05:53:00